Weather History for Mexico City Airport, Mexico

Change the Weather History Date:

Sunday, October 28, 2012

  Actual Average Record
Temperature  
Mean Temperature 62 °F -  
Max Temperature 75 °F 70 °F 78 °F (1997)
Min Temperature 48 °F 44 °F 42 °F (2011)
Degree Days  
Heating Degree Days 4    
Growing Degree Days 12 (Base 50)    
Moisture  
Dew Point 46 °F    
Average Humidity 64    
Maximum Humidity 94    
Minimum Humidity 25    
Precipitation  
Precipitation 0.00 in - - ()
Sea Level Pressure  
Sea Level Pressure 30.23 in    
Wind  
Wind Speed 6 mph ()    
Max Wind Speed 18 mph    
Max Gust Speed 23 mph    
Visibility 6.5 miles    
Events Fog    
Averages and records for this station are not official NWS values.
T = Trace of Precipitation, MM = Missing Value Source: Averaged Metar Reports

Daily Weather History Graph

Daily Weather History Graph

Search for Another Location

Airport:

Trip Planner

Search our weather history database for the weather conditions in past years. The results will help you decide how hot, cold, wet, or windy it might be!

Date:

Astronomy

Oct. 28, 2012 Rise Set
Actual Time 6:35 AM CST 6:04 PM CST
Civil Twilight 6:13 AM CST 6:26 PM CST
Nautical Twilight 5:47 AM CST 6:52 PM CST
Astronomical Twilight 5:21 AM CST 7:18 PM CST
Moon 5:22 PM CST (10/28) 5:33 AM CST (10/28)
Length of Visible Light 12h 13m
Length of Day
11h 28m
Waxing Gibbous, 99% of the Moon is Illuminated
Oct 28
Waxing Gibbous
Oct 29
Full
Nov 6
Last Quarter
Nov 13
New
Nov 20
First Quarter

Hourly Weather History & Observations

Time (CST) Temp. Dew Point Humidity Pressure Visibility Wind Dir Wind Speed Gust Speed Precip Events Conditions
12:49 AM 59.0 °F 48.2 °F 67% 29.85 in 12.0 mi NNE 8.1 mph - N/A   Overcast
1:53 AM 57.2 °F 50.0 °F 77% 30.33 in 12.0 mi NE 6.9 mph - N/A   Overcast
1:50 AM 55.4 °F 48.2 °F 77% 30.32 in 10.0 mi East 8.1 mph - N/A   Mostly Cloudy
2:49 AM 53.6 °F 48.2 °F 82% 29.83 in 8.0 mi East 5.8 mph - N/A   Scattered Clouds
3:45 AM 53.6 °F 48.2 °F 82% 30.30 in 10.0 mi East 4.6 mph - N/A   Scattered Clouds
4:43 AM 50.0 °F 46.4 °F 87% 30.30 in 10.0 mi East 5.8 mph - N/A   Scattered Clouds
4:47 AM 50.0 °F 46.4 °F 87% 30.29 in 10.0 mi East 4.6 mph - N/A   Scattered Clouds
5:44 AM 48.2 °F 46.4 °F 93% 29.83 in 8.0 mi East 4.6 mph - N/A   Partly Cloudy
6:24 AM 48.2 °F 46.4 °F 93% 30.31 in 5.0 mi NE 5.8 mph - N/A   Partly Cloudy
6:35 AM 48.2 °F 46.4 °F 93% 30.32 in 0.5 mi ENE 4.6 mph - N/A Fog Fog
6:50 AM 50.0 °F 48.2 °F 94% 30.33 in 0.1 mi NE 5.8 mph - N/A Fog Fog
7:23 AM 48.2 °F 46.4 °F 93% 30.34 in 0.5 mi ENE 4.6 mph - N/A   Scattered Clouds
7:26 AM 48.2 °F 46.4 °F 93% 30.34 in 0.5 mi ENE 4.6 mph - N/A   Scattered Clouds
7:32 AM 50.0 °F 48.2 °F 94% 30.35 in 1.0 mi ENE 3.5 mph - N/A   Scattered Clouds
7:40 AM 50.0 °F 48.2 °F 94% 30.35 in 2.0 mi East 3.5 mph - N/A   Scattered Clouds
7:48 AM 50.0 °F 48.2 °F 94% 30.35 in 2.0 mi East 3.5 mph - N/A   Scattered Clouds
8:03 AM 51.8 °F 50.0 °F 94% 30.35 in 2.5 mi ENE 2.3 mph - N/A   Scattered Clouds
8:14 AM 55.4 °F 50.0 °F 82% 30.36 in 2.5 mi East 4.6 mph - N/A   Scattered Clouds
8:23 AM 55.4 °F 50.0 °F 82% 30.36 in 2.5 mi East 4.6 mph - N/A   Scattered Clouds
8:48 AM 57.2 °F 50.0 °F 77% 29.91 in 2.5 mi East 4.6 mph - N/A   Scattered Clouds
8:58 AM 59.0 °F 50.0 °F 72% 30.37 in 3.0 mi East 3.5 mph - N/A   Scattered Clouds
9:24 AM 59.0 °F 50.0 °F 72% 30.37 in 3.0 mi East 3.5 mph - N/A   Scattered Clouds
9:44 AM 60.8 °F 50.0 °F 68% 30.37 in 3.0 mi East 2.3 mph - N/A   Haze
10:16 AM 64.4 °F 51.8 °F 64% 30.37 in 4.0 mi Calm Calm - N/A   Partly Cloudy
10:43 AM 66.2 °F 50.0 °F 56% 30.36 in 4.0 mi Calm Calm - N/A   Scattered Clouds
11:44 AM 68.0 °F 46.4 °F 46% 29.86 in 5.0 mi North 3.5 mph - N/A   Scattered Clouds
12:24 PM 71.6 °F 41.0 °F 33% 30.31 in 5.0 mi NNE 9.2 mph - N/A   Scattered Clouds
12:43 PM 71.6 °F 42.8 °F 35% 30.30 in 5.0 mi North 9.2 mph - N/A   Scattered Clouds
12:44 PM 71.6 °F 42.8 °F 35% 30.30 in 5.0 mi North 9.2 mph - N/A   Scattered Clouds
1:16 PM 71.6 °F 42.8 °F 35% 30.30 in 5.0 mi North 9.2 mph - N/A   Scattered Clouds
1:44 PM 71.6 °F 37.4 °F 29% 30.26 in 7.0 mi NNE 8.1 mph - N/A   Mostly Cloudy
2:40 PM 75.2 °F 37.4 °F 25% 30.24 in 8.0 mi WNW 9.2 mph - N/A   Mostly Cloudy
2:45 PM 75.2 °F 39.2 °F 27% 29.77 in 8.0 mi NNW 4.6 mph - N/A   Mostly Cloudy
3:49 PM 75.2 °F 37.4 °F 25% 30.22 in 8.0 mi NW 10.4 mph - N/A   Mostly Cloudy
4:44 PM 73.4 °F 39.2 °F 29% 30.23 in 9.0 mi NNE 18.4 mph - N/A   Mostly Cloudy
5:45 PM 71.6 °F 39.2 °F 31% 29.80 in 10.0 mi NNE 11.5 mph - N/A   Mostly Cloudy
6:45 PM 69.8 °F 41.0 °F 35% 30.27 in 12.0 mi NNE 10.4 mph 21.9 mph N/A   Scattered Clouds
7:29 PM 66.2 °F 44.6 °F 46% 30.29 in 12.0 mi NNE 11.5 mph 23.0 mph N/A   Scattered Clouds
7:46 PM 66.2 °F 44.6 °F 46% 30.31 in 12.0 mi NE 17.3 mph - N/A   Mostly Cloudy
8:44 PM 64.4 °F 44.6 °F 49% 29.88 in 12.0 mi NNE 13.8 mph - N/A   Mostly Cloudy
9:45 PM 62.6 °F 44.6 °F 52% 30.36 in 15.0 mi North 9.2 mph 23.0 mph N/A   Scattered Clouds
10:51 PM 60.8 °F 44.6 °F 55% 30.37 in 15.0 mi NNE 4.6 mph - N/A   Scattered Clouds